Powrót do katalogu

THORAD AGENA D DEB

AktywnyLEO
NORAD 4217·DEBRIS·🇺🇸 United States

Wystrzelony Sep 30, 1969 z Vandenberg Space Force Base

Loading…

Następne Przeloty (najbliższe 24 godziny)

TLE

ŚwieżeSource: Space-Track

Epoka: Sep 14, 2026, 13:01 UTC

1 04217U 69082CG  26257.54243999  .00000599  00000-0  19818-3 0  9999
2 04217  70.0379 304.2778 0036568 249.1998 110.5214 14.42155701960686

Śledź THORAD AGENA D DEB w czasie rzeczywistym z AllMySat

Download on the App Store